Location: Chagrin Falls Park
(41.4139°N, 81.3865°W)
Time: 17:10:07
(UTC+00:00)

Cosmos 2369 - Pass Details

Date: 29 October 2020
Orbit: 841 x 854 km, 71.0° (Epoch: 28 November)

Event Time Altitude Azimuth Distance (km) Brightness Sun altitude
Rises 23:30:25 0° 190° (S) 3,407 7.1 -13.0°
Reaches altitude 10° 23:32:53 10° 186° (S) 2,474 6.3 -13.5°
Maximum altitude 23:38:27 57° 109° (ESE) 996 3.8 -14.5°
Drops below altitude 10° 23:44:01 10° 32° (NNE) 2,483 5.8 -15.6°
Enters shadow 23:45:11 - 30° (NNE) 2,922 6.2 -15.8°
